Simultaneous Nadir Overpasses (SNOs) Predictions

Prediction of SNOs between GOES-17 and METOP-C Satellite Orbit:

Table of predicted SNOs for the next 14.0 days since TLE Epoch: 12/23/2023
Index Date Time (GOES-17) GOES-17 Lat,Lon METOP-C Lat,Lon Distance(km) Time Diff (sec)
1 12/23/2023 04:24:37 0.01,-104.68 0.14,-104.12 63.22 80
2 12/24/2023 16:43:30 -0.01,-104.69 0.88,-108.69 455.28 80
3 12/25/2023 16:25:32 -0.01,-104.69 -0.25,-103.70 113.85 80
4 12/27/2023 04:44:32 0.00,-104.68 -0.79,-108.29 411.44 80
5 12/28/2023 04:21:13 -0.01,-104.68 0.28,-103.29 157.53 80
6 12/29/2023 16:40:06 0.02,-104.69 0.73,-107.86 360.81 80
7 12/30/2023 16:22:07 0.02,-104.70 -0.40,-102.87 208.72 80
8 01/01/2024 04:41:08 -0.03,-104.69 -0.65,-107.46 315.70 80
9 01/02/2024 04:17:49 -0.03,-104.69 0.48,-102.47 253.53 80
10 01/03/2024 16:36:42 0.04,-104.71 0.58,-107.02 264.79 80
11 01/04/2024 16:18:43 0.04,-104.71 -0.55,-102.04 304.78 80
